Overview Statistics Trail Chart Weather Telemetry Raw packets
 

This is the latest recevied weather packets stored in our database for station/object K5SVV. If no packets are shown the sender has not sent any weather packets the latest 10 day(s).

<< 52 53 54 55 56 57 58 >>
Time Temp. Humidity Pressure Rain* Wind** Luminosity Snow
1788306306 34.44° C 48% 1012.5 hPa 0 mm - 48 W/m² -
1788306001 34.44° C 49% 1012.4 hPa 0 mm - 49 W/m² -
1788305696 34.44° C 48% 1012.5 hPa 0 mm - 54 W/m² -
1788305393 35° C 48% 1012.6 hPa 0 mm - 58 W/m² -
1788305088 35° C 47% 1012.9 hPa 0 mm - 78 W/m² -
1788304783 35° C 47% 1012.6 hPa 0 mm - 82 W/m² -
1788304479 35° C 46% 1012.8 hPa 0 mm - 91 W/m² -
1788304176 35° C 46% 1012.7 hPa 0 mm - 102 W/m² -
1788303875 35° C 46% 1012.8 hPa 0 mm - 115 W/m² -
1788303571 35° C 46% 1012.8 hPa 0 mm - 111 W/m² -
1788303270 35° C 46% 1013 hPa 0 mm - 118 W/m² -
1788302965 35° C 46% 1012.7 hPa 0 mm - 114 W/m² -
1788302661 35° C 46% 1012.9 hPa 0 mm - 106 W/m² -
1788302358 35.56° C 46% 1013 hPa 0 mm - 100 W/m² -
1788302053 35° C 46% 1012.7 hPa 0 mm - 98 W/m² -
1788301748 35° C 46% 1012.9 hPa 0 mm - 95 W/m² -
1788301445 35.56° C 45% 1012.9 hPa 0 mm - 93 W/m² -
1788301140 35.56° C 46% 1012.7 hPa 0 mm - 104 W/m² -
1788300835 35.56° C 45% 1012.9 hPa 0 mm - 105 W/m² -
1788300530 35.56° C 45% 1012.9 hPa 0 mm - 121 W/m² -
1788300228 35.56° C 45% 1013 hPa 0 mm - 129 W/m² -
1788299928 35.56° C 45% 1012.9 hPa 0 mm - 143 W/m² -
1788299627 35.56° C 45% 1012.9 hPa 0 mm - 142 W/m² -
1788299325 35.56° C 45% 1013 hPa 0 mm - 152 W/m² -
1788299019 35.56° C 45% 1013.2 hPa 0 mm - 152 W/m² -

* Rain latest hour (hover to see other rain measurements)
** Current wind speed in m/s (hover to see current wind gust speed)